GW2924 Weather Reports


Display with metric or nautical units.
time (UTC)temp
F
wind
direction
speed
MPH
gust
MPH
rain 1hr
in
rain 24hr
in
rain mn
in
humidity
%
barometer
mb
20260901161054 81 245 1.0 4.0 0.00 0.00 0.00 61 1015.8
20260901160555 81 0 1.0 5.0 0.00 0.00 0.00 62 1015.8
20260901155556 79 30 2.0 6.0 0.00 0.00 0.00 66 1015.8
20260901155056 79 21 3.0 5.0 0.00 0.00 0.00 64 1015.9
20260901154605 79 344 1.0 5.0 0.00 0.00 0.00 68 1015.9
20260901154057 79 28 2.0 5.0 0.00 0.00 0.00 68 1015.9
20260901153554 79 253 1.0 5.0 0.00 0.00 0.00 70 1015.8
20260901153102 79 72 1.0 4.0 0.00 0.00 0.00 72 1015.8
20260901152554 79 226 1.0 4.0 0.00 0.00 0.00 70 1015.6
20260901152053 79 32 1.0 2.0 0.00 0.00 0.00 70 1015.8
20260901151602 79 281 0.0 2.0 0.00 0.00 0.00 72 1015.7
20260901151054 78 0 0.0 2.0 0.00 0.00 0.00 70 1015.6
20260901150553 79 271 0.0 2.0 0.00 0.00 0.00 72 1015.8
20260901150108 79 0 0.0 3.0 0.00 0.00 0.00 74 1015.8
20260901145553 78 293 0.0 3.0 0.00 0.00 0.00 75 1015.8
20260901145057 78 0 0.0 3.0 0.00 0.00 0.00 76 1015.9
20260901144601 77 7 0.0 2.0 0.00 0.00 0.00 77 1015.9
20260901144054 77 0 0.0 2.0 0.00 0.00 0.00 77 1015.9
20260901143557 76 0 0.0 2.0 0.00 0.00 0.00 78 1015.8
20260901143116 76 342 0.0 2.0 0.00 0.00 0.00 79 1016.0
20260901142554 76 0 0.0 2.0 0.00 0.00 0.00 80 1015.9
20260901142053 75 0 0.0 1.0 0.00 0.00 0.00 82 1015.8
20260901141616 75 0 0.0 2.0 0.00 0.00 0.00 82 1015.8
20260901141054 74 0 0.0 2.0 0.00 0.00 0.00 82 1015.9
20260901140556 74 0 0.0 3.0 0.00 0.00 0.00 83 1016.0
20260901140104 74 0 0.0 3.0 0.00 0.00 0.00 84 1015.9
20260901135600 73 0 0.0 1.0 0.00 0.00 0.00 86 1015.8
20260901135056 72 0 0.0 1.0 0.00 0.00 0.00 86 1015.9
20260901134625 71 232 0.0 1.0 0.00 0.00 0.00 86 1015.9
20260901134053 70 0 0.0 1.0 0.00 0.00 0.00 87 1015.9
20260901133557 70 0 0.0 1.0 0.00 0.00 0.00 87 1015.9
20260901133105 69 0 0.0 1.0 0.00 0.00 0.00 92 1015.7
20260901132554 68 251 0.0 1.0 0.00 0.00 0.00 93 1015.7
20260901132054 67 0 0.0 2.0 0.00 0.00 0.00 94 1015.7
20260901131609 66 272 0.0 2.0 0.00 0.00 0.00 94 1015.7
20260901131057 65 0 0.0 2.0 0.00 0.00 0.00 96 1015.7
20260901130553 65 0 0.0 1.0 0.00 0.00 0.00 96 1015.7
20260901125556 62 0 0.0 0.0 0.00 0.00 0.00 96 1015.7
20260901125053 62 0 0.0 1.0 0.00 0.00 0.00 95 1015.7
20260901124601 62 0 0.0 1.0 0.00 0.00 0.00 95 1015.6
20260901124053 62 261 0.0 1.0 0.00 0.00 0.00 96 1015.6
20260901123554 62 261 0.0 1.0 0.00 0.00 0.00 95 1015.5
20260901123110 62 262 0.0 1.0 0.00 0.00 0.00 96 1015.5
20260901122554 61 0 0.0 1.0 0.00 0.00 0.00 96 1015.4
20260901122057 61 261 0.0 1.0 0.00 0.00 0.00 96 1015.4
20260901121609 61 0 0.0 1.0 0.00 0.00 0.00 96 1015.4
20260901121053 61 0 0.0 1.0 0.00 0.00 0.00 96 1015.4
20260901120553 61 269 0.0 1.0 0.00 0.00 0.00 96 1015.3
20260901120104 61 0 0.0 1.0 0.00 0.00 0.00 96 1015.1
20260901115553 61 0 0.0 1.0 0.00 0.00 0.00 96 1015.1
20260901115052 60 266 0.0 1.0 0.00 0.00 0.00 96 1015.1
20260901114604 60 267 0.0 1.0 0.00 0.00 0.00 97 1015.0
20260901114053 60 0 0.0 1.0 0.00 0.00 0.00 97 1015.0
20260901113553 60 174 0.0 1.0 0.00 0.00 0.00 97 1015.0
20260901113057 59 238 0.0 1.0 0.00 0.00 0.00 97 1015.1
20260901112553 59 257 0.0 1.0 0.00 0.00 0.00 97 1014.9
20260901112054 59 257 0.0 1.0 0.00 0.00 0.00 97 1014.8
20260901111558 58 0 0.0 0.0 0.00 0.00 0.00 97 1014.8
20260901111053 58 0 0.0 0.0 0.00 0.00 0.00 96 1014.6
20260901110553 58 0 0.0 0.0 0.00 0.00 0.00 96 1014.6
20260901110104 58 0 0.0 0.0 0.00 0.00 0.00 95 1014.7
20260901105553 58 0 0.0 0.0 0.00 0.00 0.00 95 1014.6
20260901105053 58 0 0.0 0.0 0.00 0.00 0.00 95 1014.6
20260901104601 59 0 0.0 1.0 0.00 0.00 0.00 96 1014.7
20260901104053 59 0 0.0 1.0 0.00 0.00 0.00 96 1014.7
20260901103553 59 0 0.0 1.0 0.00 0.00 0.00 96 1014.7
20260901103106 59 257 0.0 1.0 0.00 0.00 0.00 96 1014.7
20260901102553 59 0 0.0 1.0 0.00 0.00 0.00 95 1014.8
20260901102054 59 0 0.0 1.0 0.00 0.00 0.00 96 1014.8
20260901101555 59 0 0.0 1.0 0.00 0.00 0.00 96 1014.9
20260901101054 59 261 0.0 1.0 0.00 0.00 0.00 95 1015.0
20260901100554 59 261 0.0 1.0 0.00 0.00 0.00 95 1014.8
20260901100106 59 261 0.0 1.0 0.00 0.00 0.00 96 1014.8
20260901095553 59 255 0.0 1.0 0.00 0.00 0.00 96 1014.7
20260901095053 59 263 0.0 1.0 0.00 0.00 0.00 96 1014.6
20260901094602 59 244 0.0 1.0 0.00 0.00 0.00 95 1014.5
20260901094055 59 0 0.0 1.0 0.00 0.00 0.00 96 1014.5
20260901093553 58 257 0.0 1.0 0.00 0.00 0.00 94 1014.5
20260901093059 59 0 0.0 1.0 0.00 0.00 0.00 94 1014.4
20260901092557 60 0 0.0 1.0 0.00 0.00 0.00 95 1014.3
20260901092053 60 0 0.0 1.0 0.00 0.00 0.00 97 1014.4
20260901091605 59 0 0.0 1.0 0.00 0.00 0.00 95 1014.3
20260901091056 59 257 0.0 1.0 0.00 0.00 0.00 94 1014.3
20260901090553 60 0 0.0 0.0 0.00 0.00 0.00 94 1014.3
20260901090104 61 0 0.0 1.0 0.00 0.00 0.00 95 1014.4
20260901085554 61 0 0.0 1.0 0.00 0.00 0.00 96 1014.3
20260901085053 61 0 0.0 1.0 0.00 0.00 0.00 96 1014.4
20260901084559 61 0 0.0 1.0 0.00 0.00 0.00 95 1014.4
20260901084054 61 0 0.0 1.0 0.00 0.00 0.00 96 1014.3
20260901083554 60 233 0.0 1.0 0.00 0.00 0.00 95 1014.5
20260901083104 60 233 0.0 1.0 0.00 0.00 0.00 94 1014.3
20260901082555 60 233 0.0 1.0 0.00 0.00 0.00 94 1014.3
20260901082053 61 0 0.0 1.0 0.00 0.00 0.00 93 1014.3
20260901081600 61 0 0.0 1.0 0.00 0.00 0.00 94 1014.3
20260901081055 62 0 0.0 1.0 0.00 0.00 0.00 94 1014.4
20260901080554 62 0 0.0 1.0 0.00 0.00 0.00 94 1014.3
20260901080109 62 0 0.0 1.0 0.00 0.00 0.00 95 1014.4
20260901075555 62 0 0.0 1.0 0.00 0.00 0.00 94 1014.3
20260901075054 62 0 0.0 1.0 0.00 0.00 0.00 94 1014.4
20260901074615 63 233 0.0 1.0 0.00 0.00 0.00 94 1014.5
20260901074054 62 0 0.0 1.0 0.00 0.00 0.00 93 1014.6
20260901073554 62 0 0.0 0.0 0.00 0.00 0.00 92 1014.6
20260901073104 63 0 0.0 0.0 0.00 0.00 0.00 92 1014.7
20260901072555 63 0 0.0 1.0 0.00 0.00 0.00 92 1014.8
20260901072054 64 0 0.0 1.0 0.00 0.00 0.00 93 1014.8
20260901071606 64 225 0.0 1.0 0.00 0.00 0.00 93 1015.0
20260901071053 64 0 0.0 0.0 0.00 0.00 0.00 93 1015.1
20260901070554 64 0 0.0 0.0 0.00 0.00 0.00 91 1014.7
20260901070105 64 0 0.0 0.0 0.00 0.00 0.00 91 1014.7
20260901065552 65 0 0.0 1.0 0.00 0.00 0.00 92 1014.8
20260901065055 65 0 0.0 1.0 0.00 0.00 0.00 92 1014.8
20260901064600 65 0 0.0 1.0 0.00 0.00 0.00 93 1014.9
20260901064053 65 224 0.0 1.0 0.00 0.00 0.00 93 1015.0
20260901063556 65 212 0.0 1.0 0.00 0.00 0.00 92 1015.1
20260901063108 65 0 0.0 1.0 0.00 0.00 0.00 92 1015.0
20260901062553 65 0 0.0 1.0 0.00 0.00 0.00 92 1014.9
20260901062056 65 208 0.0 1.0 0.00 0.00 0.00 92 1015.1
20260901061607 65 0 0.0 1.0 0.00 0.00 0.00 92 1015.0
20260901061058 66 207 0.0 1.0 0.00 0.00 0.00 92 1015.0
20260901060553 65 0 0.0 1.0 0.00 0.00 0.00 92 1015.0
20260901060106 65 204 0.0 1.0 0.00 0.00 0.00 92 1014.8
20260901055555 66 204 0.0 1.0 0.00 0.00 0.00 92 1014.8
20260901055059 66 0 0.0 1.0 0.00 0.00 0.00 92 1014.7
20260901054602 66 0 0.0 1.0 0.00 0.00 0.00 93 1014.6
20260901054054 65 0 0.0 1.0 0.00 0.00 0.00 93 1014.6
20260901053557 65 0 0.0 1.0 0.00 0.00 0.00 92 1014.7
20260901053059 65 0 0.0 1.0 0.00 0.00 0.00 92 1014.8
20260901052552 65 0 0.0 1.0 0.00 0.00 0.00 92 1014.7
20260901052055 66 0 0.0 1.0 0.00 0.00 0.00 92 1014.5
20260901051604 66 214 0.0 1.0 0.00 0.00 0.00 92 1014.3
20260901051052 66 212 0.0 1.0 0.00 0.00 0.00 92 1014.4
20260901050552 66 0 0.0 1.0 0.00 0.00 0.00 91 1014.5
20260901045556 66 214 0.0 1.0 0.00 0.00 0.00 91 1014.2
20260901045055 67 0 0.0 0.0 0.00 0.00 0.00 91 1014.1
20260901044601 67 0 0.0 0.0 0.00 0.00 0.00 91 1014.1
20260901044056 67 0 0.0 0.0 0.00 0.00 0.00 92 1014.1
20260901043558 67 0 0.0 0.0 0.00 0.00 0.00 92 1014.1
20260901043106 66 0 0.0 0.0 0.00 0.00 0.00 92 1014.1
20260901042552 67 0 0.0 0.0 0.00 0.00 0.00 91 1014.0
20260901042055 67 0 0.0 0.0 0.00 0.00 0.00 91 1014.0
20260901041602 67 0 0.0 0.0 0.00 0.00 0.00 91 1013.9
20260901041052 67 0 0.0 0.0 0.00 0.00 0.00 91 1014.0
20260901040555 67 0 0.0 0.0 0.00 0.00 0.00 90 1013.9
20260901040115 68 0 0.0 0.0 0.00 0.00 0.00 90 1014.1
20260901035556 68 0 0.0 0.0 0.00 0.00 0.00 90 1014.1
20260901035057 68 0 0.0 0.0 0.00 0.00 0.00 90 1013.9
20260901034558 68 0 0.0 0.0 0.00 0.00 0.00 89 1014.0
20260901034055 68 0 0.0 0.0 0.00 0.00 0.00 87 1013.9
20260901033555 69 0 0.0 1.0 0.00 0.00 0.00 88 1014.0
20260901033107 69 204 0.0 1.0 0.00 0.00 0.00 88 1013.9
20260901032557 69 0 0.0 1.0 0.00 0.00 0.00 87 1013.9
20260901032056 70 0 0.0 0.0 0.00 0.00 0.00 87 1013.9
20260901031603 70 0 0.0 0.0 0.00 0.00 0.00 87 1013.9
20260901031056 70 0 0.0 0.0 0.00 0.00 0.00 87 1013.8
20260901030555 70 0 0.0 0.0 0.00 0.00 0.00 88 1014.0
20260901030108 70 0 0.0 0.0 0.00 0.00 0.00 88 1013.9
20260901025552 70 0 0.0 0.0 0.00 0.00 0.00 86 1013.9
20260901025053 70 0 0.0 0.0 0.00 0.00 0.00 86 1013.8
20260901024558 70 203 0.0 0.0 0.00 0.00 0.00 87 1013.8
20260901024055 71 201 0.0 0.0 0.00 0.00 0.00 87 1013.8
20260901023555 71 0 0.0 1.0 0.00 0.00 0.00 87 1013.7
20260901023105 71 0 0.0 1.0 0.00 0.00 0.00 87 1013.8
20260901022552 71 0 0.0 0.0 0.00 0.00 0.00 87 1013.8
20260901022052 71 0 0.0 0.0 0.00 0.00 0.00 87 1013.8
20260901021606 71 0 0.0 0.0 0.00 0.00 0.00 87 1013.7
20260901021055 71 201 0.0 0.0 0.00 0.00 0.00 87 1013.7
20260901020558 71 0 0.0 0.0 0.00 0.00 0.00 87 1013.6
20260901020101 71 0 0.0 0.0 0.00 0.00 0.00 87 1013.5
20260901015554 72 0 0.0 0.0 0.00 0.00 0.00 86 1013.4
20260901015055 72 0 0.0 0.0 0.00 0.00 0.00 85 1013.4
20260901014558 72 0 0.0 0.0 0.00 0.00 0.00 85 1013.5
20260901014053 73 0 0.0 0.0 0.00 0.00 0.00 84 1013.3
20260901013553 74 0 0.0 0.0 0.00 0.00 0.00 82 1013.3
20260901013111 74 0 0.0 0.0 0.00 0.00 0.00 82 1013.1
20260901012556 75 0 0.0 1.0 0.00 0.00 0.00 82 1013.2
20260901012052 75 0 0.0 2.0 0.00 0.00 0.00 81 1013.1
20260901011604 76 193 0.0 2.0 0.00 0.00 0.00 79 1013.1
20260901011052 76 0 0.0 0.0 0.00 0.00 0.00 79 1013.0
20260901010552 76 0 0.0 1.0 0.00 0.00 0.00 78 1012.9
20260901010058 77 0 0.0 1.0 0.00 0.00 0.00 78 1012.9
20260901005556 77 0 0.0 0.0 0.00 0.00 0.00 78 1012.9
20260901005053 78 0 0.0 1.0 0.00 0.00 0.00 78 1012.9
20260901004605 78 0 0.0 3.0 0.00 0.00 0.00 78 1012.9
20260901004055 79 213 0.0 3.0 0.00 0.00 0.00 77 1012.8
20260901003555 80 244 1.0 3.0 0.00 0.00 0.00 76 1012.8
20260901003059 80 0 0.0 2.0 0.00 0.00 0.00 75 1012.7
20260901002556 80 211 0.0 2.0 0.00 0.00 0.00 74 1012.7
20260901002055 81 200 1.0 2.0 0.00 0.00 0.00 73 1012.7
20260901001603 81 178 0.0 1.0 0.00 0.00 0.00 71 1012.8
20260901001055 82 0 0.0 0.0 0.00 0.00 0.00 69 1012.7
20260901000552 83 0 0.0 0.0 0.00 0.00 0.00 67 1012.7
20260901000103 84 0 0.0 0.0 0.00 0.00 0.00 65 1012.6
20260831235553 85 0 0.0 0.0 0.00 0.00 0.00 64 1012.6
20260831235055 86 0 0.0 0.0 0.00 0.00 0.00 63 1012.5
20260831234608 87 0 0.0 0.0 0.00 0.00 0.00 61 1012.5
20260831234053 87 0 0.0 1.0 0.00 0.00 0.00 60 1012.5
20260831233552 88 0 0.0 1.0 0.00 0.00 0.00 60 1012.5
20260831233105 88 0 0.0 2.0 0.00 0.00 0.00 63 1012.6
20260831232552 88 237 0.0 2.0 0.00 0.00 0.00 62 1012.4
20260831232052 90 243 1.0 2.0 0.00 0.00 0.00 59 1012.3
20260831231604 92 150 0.0 1.0 0.00 0.00 0.00 57 1012.3
20260831231053 91 0 0.0 0.0 0.00 0.00 0.00 59 1012.3
20260831230551 90 0 0.0 2.0 0.00 0.00 0.00 60 1012.4
20260831230059 90 0 0.0 2.0 0.00 0.00 0.00 59 1012.4
20260831225554 90 224 0.0 2.0 0.00 0.00 0.00 58 1012.3
20260831225052 90 0 0.0 1.0 0.00 0.00 0.00 59 1012.1
20260831224606 91 0 0.0 1.0 0.00 0.00 0.00 58 1012.2
20260831224051 91 0 0.0 1.0 0.00 0.00 0.00 57 1012.0
20260831223555 91 0 0.0 1.0 0.00 0.00 0.00 60 1012.0
20260831223103 91 0 0.0 1.0 0.00 0.00 0.00 61 1012.0
20260831222553 90 0 0.0 3.0 0.00 0.00 0.00 61 1012.0
20260831222053 91 0 0.0 3.0 0.00 0.00 0.00 63 1011.9
20260831221634 91 0 0.0 3.0 0.00 0.00 0.00 60 1011.9
20260831221055 91 234 1.0 3.0 0.00 0.00 0.00 61 1012.1
20260831220555 90 303 1.0 6.0 0.00 0.00 0.00 60 1012.1
20260831215553 91 237 0.0 2.0 0.00 0.00 0.00 61 1012.1
20260831215054 90 235 0.0 3.0 0.00 0.00 0.00 62 1012.1
20260831214606 90 255 0.0 3.0 0.00 0.00 0.00 64 1012.1
20260831214054 90 237 1.0 3.0 0.00 0.00 0.00 62 1012.0
20260831213553 90 285 0.0 3.0 0.00 0.00 0.00 64 1011.9
20260831213103 90 284 1.0 3.0 0.00 0.00 0.00 65 1011.9
20260831212555 89 0 0.0 4.0 0.00 0.00 0.00 64 1011.9
20260831212056 89 290 1.0 4.0 0.00 0.00 0.00 64 1011.9
20260831211600 89 238 1.0 3.0 0.00 0.00 0.00 64 1011.9
20260831211057 89 134 1.0 5.0 0.00 0.00 0.00 63 1011.8
20260831210557 89 244 2.0 5.0 0.00 0.00 0.00 65 1011.8
20260831210106 89 262 1.0 4.0 0.00 0.00 0.00 66 1011.7
20260831205556 89 294 1.0 4.0 0.00 0.00 0.00 66 1011.6
20260831205056 89 316 1.0 4.0 0.00 0.00 0.00 66 1011.6
20260831204606 89 288 1.0 5.0 0.00 0.00 0.00 69 1011.7
20260831204056 89 296 1.0 5.0 0.00 0.00 0.00 68 1011.7
20260831203557 89 0 0.0 3.0 0.00 0.00 0.00 69 1011.7
20260831203137 89 288 1.0 3.0 0.00 0.00 0.00 70 1011.8
20260831202557 88 0 1.0 3.0 0.00 0.00 0.00 72 1011.8
20260831202057 87 304 1.0 3.0 0.00 0.00 0.00 71 1011.8
20260831201607 88 300 0.0 3.0 0.00 0.00 0.00 71 1011.8
20260831201057 88 290 1.0 3.0 0.00 0.00 0.00 72 1011.8
20260831200558 88 243 1.0 3.0 0.00 0.00 0.00 73 1011.8
20260831200141 87 15 0.0 3.0 0.00 0.00 0.00 74 1011.7
20260831195557 87 278 0.0 3.0 0.00 0.00 0.00 72 1011.8
20260831195057 87 226 1.0 3.0 0.00 0.00 0.00 74 1011.8
20260831194624 87 0 1.0 3.0 0.00 0.00 0.00 76 1011.8
20260831194056 86 56 0.0 2.0 0.00 0.00 0.00 77 1011.7
20260831193557 85 252 0.0 6.0 0.00 0.00 0.00 77 1011.8
20260831193102 84 74 2.0 6.0 0.00 0.00 0.00 77 1011.8
20260831192559 85 18 1.0 3.0 0.00 0.00 0.00 77 1011.8
20260831192056 85 81 0.0 5.0 0.00 0.00 0.00 77 1011.8
20260831191603 84 41 0.0 5.0 0.00 0.00 0.00 76 1011.7
20260831191057 85 0 1.0 5.0 0.00 0.00 0.00 76 1011.7
20260831190557 85 272 0.0 2.0 0.00 0.00 0.00 77 1011.7
20260831190109 84 101 0.0 2.0 0.00 0.00 0.00 78 1011.8
20260831185557 84 201 0.0 3.0 0.00 0.00 0.00 78 1011.8
20260831185057 84 293 0.0 3.0 0.00 0.00 0.00 78 1011.8
20260831184606 84 269 1.0 4.0 0.00 0.00 0.00 78 1011.9
20260831184056 83 0 1.0 5.0 0.00 0.00 0.00 79 1011.8
20260831183556 84 293 1.0 5.0 0.00 0.00 0.00 78 1011.7
20260831183101 83 304 0.0 2.0 0.00 0.00 0.00 80 1011.9
20260831182557 83 278 0.0 2.0 0.00 0.00 0.00 80 1011.9
20260831182057 83 285 0.0 2.0 0.00 0.00 0.00 80 1011.9
20260831181603 83 250 0.0 2.0 0.00 0.00 0.00 79 1011.9
20260831181057 83 285 0.0 1.0 0.00 0.00 0.00 79 1012.0
20260831180559 83 0 0.0 2.0 0.00 0.00 0.00 80 1012.0
20260831180116 83 0 0.0 3.0 0.00 0.00 0.00 80 1011.9
20260831175556 83 226 1.0 3.0 0.00 0.00 0.00 79 1012.0
20260831175057 83 186 0.0 2.0 0.00 0.00 0.00 79 1012.1
20260831174606 82 312 0.0 2.0 0.00 0.00 0.00 82 1012.0
20260831174057 82 0 1.0 2.0 0.00 0.00 0.00 80 1012.1
20260831173555 82 0 1.0 1.0 0.00 0.00 0.00 81 1012.1
20260831173107 82 250 0.0 1.0 0.00 0.00 0.00 81 1011.9
20260831172557 81 0 0.0 2.0 0.00 0.00 0.00 81 1012.0
20260831172056 81 0 0.0 2.0 0.00 0.00 0.00 81 1012.0
20260831171605 81 0 0.0 1.0 0.00 0.00 0.00 81 1011.9
20260831171053 81 264 0.0 2.0 0.00 0.00 0.00 80 1011.9
20260831170557 81 0 0.0 2.0 0.00 0.00 0.00 81 1012.0
20260831170111 81 51 1.0 2.0 0.00 0.00 0.00 81 1012.0
20260831165554 81 247 0.0 3.0 0.00 0.00 0.00 81 1012.1
20260831165056 81 246 0.0 3.0 0.00 0.00 0.00 80 1012.1
20260831164604 81 4 0.0 3.0 0.00 0.00 0.00 80 1012.1
20260831164053 81 314 0.0 4.0 0.00 0.00 0.00 80 1012.2
20260831163556 81 0 0.0 4.0 0.00 0.00 0.00 81 1012.1
20260831163104 81 176 1.0 4.0 0.00 0.00 0.00 80 1012.1
20260831162556 82 249 0.0 2.0 0.00 0.00 0.00 79 1012.1
20260831162057 81 285 0.0 5.0 0.00 0.00 0.00 80 1012.0
20260831161601 81 228 2.0 5.0 0.00 0.00 0.00 81 1012.1